When you browse on this site, cookies collect data to enhance your experience and personalize the content and advertising you see.
Visit our Privacy Policy to learn more. By continuing to use the site, you agree to this use of cookies and data.

Météo par heure à Jalalabad

Ce jour, 4 Juillet, Samedi

Heure Température Précipitation Vent Pression Humidité
00:00 +36°C° 0 mm 3 m/s 704 mmHg 14%
01:00 +35°C° 0 mm 3 m/s 703 mmHg 15%
02:00 +34°C° 0 mm 3 m/s 703 mmHg 16%
03:00 +32°C° 0 mm 2 m/s 703 mmHg 17%
04:00 +31°C° 0 mm 2 m/s 703 mmHg 18%
05:00 +31°C° 0 mm 1 m/s 703 mmHg 19%
06:00 +32°C° 0 mm 2 m/s 703 mmHg 17%
07:00 +35°C° 0 mm 2 m/s 704 mmHg 15%
08:00 +36°C° 0 mm 2 m/s 704 mmHg 12%
09:00 +38°C° 0 mm 2 m/s 704 mmHg 11%
10:00 +39°C° 0 mm 2 m/s 704 mmHg 10%
11:00 +40°C° 0 mm 2 m/s 703 mmHg 9%
12:00 +41°C° 0 mm 2 m/s 703 mmHg 9%
13:00 +42°C° 0 mm 2 m/s 703 mmHg 9%
14:00 +43°C° 0 mm 2 m/s 702 mmHg 9%
15:00 +42°C° 0.2 mm 3 m/s 702 mmHg 13%
16:00 +40°C° 0.2 mm 3 m/s 702 mmHg 18%
17:00 +40°C° 0.2 mm 4 m/s 701 mmHg 22%
18:00 +38°C° 0 mm 3 m/s 702 mmHg 23%
19:00 +38°C° 0 mm 2 m/s 702 mmHg 25%
20:00 +37°C° 0 mm 2 m/s 702 mmHg 26%
21:00 +37°C° 0 mm 2 m/s 702 mmHg 26%
22:00 +36°C° 0 mm 2 m/s 703 mmHg 26%
23:00 +36°C° 0 mm 2 m/s 703 mmHg 27%

Demain, 5 Juillet, Dimanche

Heure Température Précipitation Vent Pression Humidité
00:00 +35°C° 0 mm 2 m/s 702 mmHg 27%
01:00 +35°C° 0 mm 3 m/s 702 mmHg 27%
02:00 +34°C° 0 mm 3 m/s 702 mmHg 27%
03:00 +32°C° 0 mm 2 m/s 702 mmHg 29%
04:00 +32°C° 0 mm 1 m/s 702 mmHg 30%
05:00 +29°C° 0 mm 0 m/s 702 mmHg 31%
06:00 +32°C° 0 mm 1 m/s 702 mmHg 30%
07:00 +32°C° 0 mm 2 m/s 702 mmHg 29%
08:00 +34°C° 0 mm 3 m/s 702 mmHg 29%
09:00 +35°C° 0 mm 2 m/s 702 mmHg 27%
10:00 +36°C° 0 mm 2 m/s 702 mmHg 25%
11:00 +36°C° 0 mm 1 m/s 702 mmHg 23%
12:00 +37°C° 0 mm 1 m/s 702 mmHg 21%
13:00 +39°C° 0 mm 2 m/s 702 mmHg 19%
14:00 +40°C° 0 mm 2 m/s 701 mmHg 17%
15:00 +40°C° 0.1 mm 3 m/s 701 mmHg 18%
16:00 +40°C° 0.1 mm 3 m/s 701 mmHg 20%
17:00 +40°C° 0.1 mm 3 m/s 701 mmHg 22%
18:00 +39°C° 0 mm 3 m/s 701 mmHg 23%
19:00 +38°C° 0 mm 3 m/s 701 mmHg 25%
20:00 +38°C° 0 mm 2 m/s 702 mmHg 26%
21:00 +37°C° 0 mm 2 m/s 702 mmHg 28%
22:00 +36°C° 0 mm 1 m/s 702 mmHg 30%
23:00 +35°C° 0 mm 1 m/s 702 mmHg 33%

Après-demain, 6 Juillet, Lundi

Heure Température Précipitation Vent Pression Humidité
00:00 +34°C° 0 mm 1 m/s 702 mmHg 33%
01:00 +34°C° 0 mm 1 m/s 702 mmHg 34%
02:00 +33°C° 0 mm 1 m/s 702 mmHg 35%
03:00 +33°C° 0 mm 1 m/s 702 mmHg 35%
04:00 +33°C° 0 mm 1 m/s 702 mmHg 36%
05:00 +32°C° 0 mm 1 m/s 701 mmHg 36%
06:00 +33°C° 0 mm 1 m/s 702 mmHg 32%
07:00 +34°C° 0 mm 1 m/s 702 mmHg 29%
08:00 +36°C° 0 mm 1 m/s 703 mmHg 26%
09:00 +37°C° 0 mm 1 m/s 703 mmHg 25%
10:00 +37°C° 0 mm 1 m/s 703 mmHg 24%
11:00 +39°C° 0 mm 2 m/s 703 mmHg 23%
12:00 +40°C° 0 mm 2 m/s 702 mmHg 22%
13:00 +41°C° 0 mm 2 m/s 702 mmHg 21%
14:00 +42°C° 0 mm 2 m/s 702 mmHg 19%
15:00 +42°C° 0.1 mm 3 m/s 702 mmHg 20%
16:00 +42°C° 0.1 mm 5 m/s 702 mmHg 20%
17:00 +41°C° 0.1 mm 6 m/s 702 mmHg 21%
18:00 +40°C° 0 mm 4 m/s 702 mmHg 23%
19:00 +37°C° 0 mm 3 m/s 702 mmHg 26%
20:00 +35°C° 0 mm 1 m/s 703 mmHg 28%
21:00 +35°C° 0 mm 1 m/s 703 mmHg 29%
22:00 +35°C° 0 mm 1 m/s 704 mmHg 29%
23:00 +33°C° 0 mm 0 m/s 704 mmHg 29%

7 Juillet, Mardi

Heure Température Précipitation Vent Pression Humidité
00:00 +34°C° 0 mm 1 m/s 704 mmHg 30%
01:00 +34°C° 0 mm 1 m/s 703 mmHg 31%
02:00 +34°C° 0 mm 1 m/s 703 mmHg 32%
03:00 +33°C° 0 mm 1 m/s 703 mmHg 33%
04:00 +30°C° 0 mm 0 m/s 703 mmHg 35%
05:00 +29°C° 0 mm 0 m/s 703 mmHg 37%
06:00 +31°C° 0 mm 0 m/s 703 mmHg 33%
07:00 +34°C° 0 mm 1 m/s 704 mmHg 29%
08:00 +36°C° 0 mm 1 m/s 704 mmHg 25%
09:00 +37°C° 0 mm 1 m/s 704 mmHg 22%
10:00 +39°C° 0 mm 1 m/s 704 mmHg 20%
11:00 +41°C° 0 mm 1 m/s 704 mmHg 17%
12:00 +42°C° 0 mm 2 m/s 704 mmHg 16%
13:00 +43°C° 0 mm 2 m/s 704 mmHg 15%
14:00 +45°C° 0 mm 3 m/s 704 mmHg 14%
15:00 +44°C° 0 mm 3 m/s 704 mmHg 15%
16:00 +44°C° 0 mm 4 m/s 704 mmHg 16%
17:00 +44°C° 0 mm 4 m/s 704 mmHg 17%
18:00 +43°C° 0 mm 3 m/s 704 mmHg 18%
19:00 +41°C° 0 mm 2 m/s 704 mmHg 20%
20:00 +40°C° 0 mm 1 m/s 704 mmHg 22%
21:00 +40°C° 0 mm 1 m/s 704 mmHg 23%
22:00 +39°C° 0 mm 1 m/s 705 mmHg 24%
23:00 +37°C° 0 mm 1 m/s 705 mmHg 25%

8 Juillet, Mercredi

Heure Température Précipitation Vent Pression Humidité
00:00 +37°C° 0 mm 1 m/s 705 mmHg 26%
01:00 +36°C° 0 mm 1 m/s 704 mmHg 26%
02:00 +36°C° 0 mm 1 m/s 704 mmHg 27%
03:00 +35°C° 0 mm 1 m/s 704 mmHg 28%
04:00 +34°C° 0 mm 1 m/s 704 mmHg 29%
05:00 +34°C° 0 mm 1 m/s 704 mmHg 30%
06:00 +35°C° 0 mm 1 m/s 704 mmHg 28%
07:00 +36°C° 0 mm 1 m/s 705 mmHg 25%
08:00 +39°C° 0 mm 1 m/s 705 mmHg 23%
09:00 +40°C° 0 mm 2 m/s 705 mmHg 22%
10:00 +41°C° 0 mm 2 m/s 705 mmHg 21%
11:00 +43°C° 0 mm 3 m/s 705 mmHg 20%
12:00 +44°C° 0 mm 3 m/s 704 mmHg 19%
13:00 +45°C° 0 mm 3 m/s 704 mmHg 18%
14:00 +45°C° 0 mm 3 m/s 704 mmHg 17%
15:00 +44°C° 0.1 mm 4 m/s 703 mmHg 20%
16:00 +45°C° 0.1 mm 6 m/s 703 mmHg 22%
17:00 +44°C° 0.1 mm 7 m/s 703 mmHg 24%
18:00 +42°C° 0 mm 5 m/s 703 mmHg 25%
19:00 +42°C° 0 mm 4 m/s 703 mmHg 26%
20:00 +40°C° 0 mm 2 m/s 703 mmHg 27%
21:00 +39°C° 0 mm 1 m/s 703 mmHg 29%
22:00 +39°C° 0 mm 1 m/s 703 mmHg 30%
23:00 +35°C° 0 mm 0 m/s 703 mmHg 32%

9 Juillet, Jeudi

Heure Température Précipitation Vent Pression Humidité
00:00 +35°C° 0 mm 0 m/s 703 mmHg 32%
01:00 +36°C° 0 mm 1 m/s 702 mmHg 33%
02:00 +36°C° 0 mm 1 m/s 702 mmHg 33%
03:00 +35°C° 0 mm 1 m/s 702 mmHg 34%
04:00 +35°C° 0 mm 1 m/s 701 mmHg 35%
05:00 +34°C° 0 mm 1 m/s 701 mmHg 36%
06:00 +35°C° 0 mm 1 m/s 701 mmHg 33%
07:00 +36°C° 0 mm 1 m/s 701 mmHg 30%
08:00 +37°C° 0 mm 1 m/s 701 mmHg 27%
09:00 +40°C° 0 mm 1 m/s 701 mmHg 26%
10:00 +41°C° 0 mm 1 m/s 701 mmHg 25%
11:00 +42°C° 0 mm 1 m/s 701 mmHg 23%
12:00 +43°C° 0.1 mm 3 m/s 700 mmHg 24%
13:00 +42°C° 0.1 mm 5 m/s 700 mmHg 25%
14:00 +43°C° 0.1 mm 7 m/s 699 mmHg 25%
15:00 +40°C° 0.8 mm 6 m/s 699 mmHg 29%
16:00 +37°C° 0.8 mm 5 m/s 698 mmHg 32%
17:00 +34°C° 0.8 mm 4 m/s 698 mmHg 35%
18:00 +35°C° 0.2 mm 3 m/s 698 mmHg 35%
19:00 +35°C° 0.2 mm 2 m/s 699 mmHg 35%
20:00 +35°C° 0.2 mm 2 m/s 699 mmHg 36%
21:00 +34°C° 0 mm 1 m/s 699 mmHg 37%
22:00 +33°C° 0 mm 1 m/s 700 mmHg 39%
23:00 +31°C° 0 mm 0 m/s 700 mmHg 40%
Voir plus